Home > Weather > Canberra > Past weeks

Flag for Australia Past Weather in Canberra, Australian Capital Territory, Australia — Yesterday and Last 2 Weeks

Now
25 °F

Clear.


Feels Like: 25 °F
Forecast: 28 / 50 °F
Wind: No wind

Location: Canberra Airport

Current Time: Jun 26, 2016 at 5:40:30 AM

Latest Report: Jun 26, 2016 at 5:00 AM


Visibility: N/A

Pressure: 30.12 "Hg (27.99 "Hg at 577m altitude)

Humidity: 93%

Dew Point: 23 °F

Location of CanberraLocation

Past Weather in Canberra — Graph

°F

Canberra Temperature Yesterday

Maximum temperature yesterday: 50 °F (at 2:00 PM)
Minimum temperature yesterday: 28 °F (at 10:00 PM)
Average temperature yesterday: 38 °F

High & Low Weather Summary for the Past Weeks

 TemperatureHumidityPressure
High59 °F (Jun 14, 1:30 PM)100% (Jun 12, 2:00 AM)30.69 "Hg (Jun 12, 2:00 AM)
Low23 °F (Jun 15, 6:00 AM)39% (Jun 11, 2:00 PM)29.39 "Hg (Jun 20, 2:00 PM)
Average45 °F81%30.05 "Hg
* Reported Jun 11 4:00 AM — Jun 26 4:00 AM, Canberra, Weather by CustomWeather, © 2016

Note: Actual official high and low records may vary slightly from our data, if they occured in-between our weather recording intervals... More about our weather records

Advertising

Canberra Weather History for the Previous 24 Hours

Scroll right to see more
 ConditionsComfort  
Time TempWeatherWind HumidityBarometerVisibility
4:00 AM
Sun, Jun 26
25 °FClear.1 mph93%30.12 "HgN/A
3:30 AM25 °FClear.7 mph100%30.12 "HgN/A
3:00 AM27 °FClear.6 mph100%30.12 "HgN/A
2:30 AM27 °FClear.6 mph93%30.12 "HgN/A
2:00 AM27 °FPassing clouds.5 mph93%30.15 "HgN/A
1:30 AM27 °FClear.1 mph93%30.15 "HgN/A
1:00 AM27 °FClear.No wind100%30.15 "HgN/A
12:30 AM25 °FClear.2 mph93%30.15 "HgN/A
12:00 AM28 °FPassing clouds.3 mph93%30.12 "HgN/A
11:30 PM
Sat, Jun 25
28 °FClear.No wind93%30.12 "HgN/A
11:00 PM28 °FClear.5 mph93%30.15 "HgN/A
10:30 PM30 °FClear.1 mph93%30.12 "HgN/A
10:00 PM28 °FClear.2 mph86%30.15 "HgN/A
9:00 PM32 °FClear.No wind80%30.12 "HgN/A
8:00 PM30 °FClear.2 mph86%30.12 "HgN/A
7:00 PM36 °FClear.5 mph75%30.12 "HgN/A
6:30 PM37 °FClear.6 mph70%30.12 "HgN/A
6:00 PM39 °FPassing clouds.7 mph65%30.09 "HgN/A
5:30 PM39 °FPassing clouds.8 mph70%30.09 "HgN/A
5:00 PM43 °FPassing clouds.9 mph61%30.07 "HgN/A
4:30 PM45 °FPassing clouds.12 mph57%30.07 "HgN/A
4:00 PM46 °FPassing clouds.12 mph53%30.07 "HgN/A
3:00 PM48 °FPassing clouds.13 mph46%30.07 "HgN/A
2:30 PM50 °FPassing clouds.10 mph43%30.07 "HgN/A
2:00 PM50 °FPassing clouds.9 mph40%30.07 "HgN/A
1:00 PM48 °FPassing clouds.9 mph40%30.07 "HgN/A
12:30 PM46 °FPassing clouds.6 mph40%30.07 "HgN/A
12:00 PM46 °FPassing clouds.7 mph43%30.07 "HgN/A
11:00 AM45 °FPassing clouds.8 mph46%30.09 "HgN/A
10:30 AM43 °FPassing clouds.5 mph53%30.09 "HgN/A
10:00 AM43 °FPassing clouds.6 mph53%30.09 "HgN/A
9:30 AM41 °FPassing clouds.7 mph57%30.09 "HgN/A
9:00 AM37 °FPassing clouds.No wind70%30.07 "HgN/A
8:00 AM32 °FPassing clouds.3 mph80%30.07 "HgN/A
7:00 AM30 °FPassing clouds.5 mph86%30.04 "HgN/A
6:30 AM34 °FPassing clouds.5 mph75%30.04 "HgN/A
6:00 AM30 °FPassing clouds.8 mph86%30.01 "HgN/A
5:00 AM34 °FClear.9 mph75%29.98 "HgN/A
Weather by CustomWeather, © 2016

See weather overviewHow to use our weather pages